GSAT0208 (PRN E08)

Last updated on Sat Jul 20 2024 00:03:12 GMT+0000 (Coordinated Universal Time)

1 41175U 15079B 24201.22406242 -.00000007 00000+0 00000+0 0 9997 2 41175 55.4366 120.4330 0003707 328.5725 31.3971 1.70473736 53450

Satellite not in orbit

GSAT0208 (PRN E08)